This is the latest recevied weather packets stored in our database for station/object KH6DH-13. If no packets are shown the sender has not sent any weather packets the latest 10 day(s).
| Time | Temp. | Humidity | Pressure | Rain* | Wind** | Luminosity | Snow |
|---|---|---|---|---|---|---|---|
| 1788010676 | 24.44° C | - | - | 0 mm | 0.89 m/s, 181° | - | - |
| 1788010075 | 24.44° C | - | - | 0.51 mm | 0.89 m/s, 28° | - | - |
| 1788009474 | 25° C | - | - | 0.51 mm | 0 m/s | - | - |
| 1788008873 | 25° C | - | - | 0.51 mm | 0.89 m/s, 53° | - | - |
| 1788008272 | 25° C | - | - | 0.51 mm | 0.45 m/s, 68° | - | - |
| 1788007671 | 25° C | - | - | 0.51 mm | 0 m/s | - | - |
| 1788007070 | 25° C | - | - | 0.51 mm | 0.45 m/s, 101° | - | - |
| 1788006469 | 25° C | - | - | 0 mm | 0.89 m/s, 14° | - | - |
| 1788005868 | 25.56° C | - | - | 0 mm | 0 m/s | - | - |
| 1788005267 | 25.56° C | - | - | 0 mm | 1.79 m/s, 15° | - | - |
| 1788004666 | 25° C | - | - | 0 mm | 0.89 m/s, 25° | - | - |
| 1788004065 | 25° C | - | - | 0 mm | 0 m/s | - | - |
| 1788003464 | 25° C | - | - | 0 mm | 0 m/s | - | - |
| 1788002863 | 25° C | - | - | 0 mm | 0.89 m/s, 84° | - | - |
| 1788002262 | 25° C | - | - | 0 mm | 0.89 m/s, 357° | - | - |
| 1788001661 | 25° C | - | - | 0 mm | 0 m/s | - | - |
| 1788001062 | 25° C | - | - | 0 mm | 0 m/s | - | - |
| 1788000459 | 25.56° C | - | - | 0 mm | 0 m/s | - | - |
| 1787999858 | 25° C | - | - | 0 mm | 1.34 m/s, 159° | - | - |
| 1787999257 | 25.56° C | - | - | 0 mm | 0.45 m/s, 44° | - | - |
| 1787998656 | 25° C | - | - | 0 mm | 0 m/s | - | - |
| 1787998055 | 25° C | - | - | 0 mm | 0 m/s | - | - |
| 1787997454 | 25° C | - | - | 0 mm | 0.45 m/s, 291° | - | - |
| 1787996853 | 25.56° C | - | - | 0 mm | 0.45 m/s, 336° | - | - |
| 1787996252 | 25° C | - | - | 0 mm | 0.45 m/s, 79° | - | - |
* Rain latest hour (hover to see other rain measurements)
** Current wind speed in m/s (hover to see current wind gust speed)